Location: Herm
(49.4830°N, 2.4500°W)
Time: 19:40:07
(UTC+00:00)

VELOX 1 - Pass Details

Date: 01 November 2021
Orbit: 627 x 641 km, 98.3° (Epoch: 03 December)

Event Time Altitude Azimuth Distance (km) Brightness Sun altitude
Rises 18:10:20 0° 3° (N) 2,957 ? -13.8°
Reaches altitude 10° 18:12:59 10° 347° (NNW) 2,045 ? -14.3°
Maximum altitude 18:16:16 21° 300° (WNW) 1,459 ? -14.8°
Drops below altitude 10° 18:19:33 10° 252° (WSW) 2,037 ? -15.3°
Sets 18:22:11 0° 236° (SW) 2,942 ? -15.7°
